FW6649 Weather Reports


time (UTC)temp
C
wind
direction
speed
KPH
gust
KPH
rain 1hr
cm
rain 24hr
cm
rain mn
cm
humidity
%
barometer
mb
20260510140038 21 284 8.0 14.5 0.00 0.00 0.00 60 1015.3
20260510134539 20 294 4.8 9.7 0.00 0.00 0.00 62 1015.4
20260510133044 20 281 3.2 11.3 0.00 0.00 0.00 65 1015.2
20260510131543 18 256 4.8 9.7 0.00 0.00 0.00 70 1015.3
20260510130039 17 306 3.2 9.7 0.00 0.00 0.00 77 1015.2
20260510124538 17 259 3.2 9.7 0.00 0.00 0.00 80 1015.3
20260510123040 15 254 4.8 8.0 0.00 0.00 0.00 86 1015.2
20260510121537 14 241 3.2 4.8 0.00 0.00 0.00 94 1014.9
20260510120037 13 200 1.6 4.8 0.00 0.00 0.00 96 1014.6
20260510114554 13 190 1.6 3.2 0.00 0.00 0.00 96 1014.4
20260510113050 12 0 0.0 3.2 0.00 0.00 0.00 96 1014.3
20260510111541 12 273 0.0 0.0 0.00 0.00 0.00 95 1014.1
20260510110040 11 0 0.0 3.2 0.00 0.00 0.00 94 1013.9
20260510104543 11 338 1.6 4.8 0.00 0.00 0.00 94 1013.5
20260510103035 12 286 1.6 4.8 0.00 0.00 0.00 93 1013.2
20260510101538 12 286 1.6 4.8 0.00 0.00 0.00 94 1013.0
20260510100047 12 0 1.6 4.8 0.00 0.00 0.00 94 1013.0
20260510094537 12 282 1.6 4.8 0.00 0.00 0.00 94 1012.9
20260510093037 13 0 0.0 1.6 0.00 0.00 0.00 93 1012.7
20260510091538 13 0 0.0 0.0 0.00 0.00 0.00 93 1012.7
20260510090036 13 0 0.0 0.0 0.00 0.00 0.00 92 1012.4
20260510084535 13 0 0.0 0.0 0.00 0.00 0.00 92 1012.2
20260510083042 13 0 0.0 0.0 0.00 0.00 0.00 92 1012.0
20260510081537 14 0 0.0 0.0 0.00 0.00 0.00 92 1012.0
20260510080037 14 0 0.0 3.2 0.00 0.00 0.00 91 1011.8
20260510074542 15 309 0.0 4.8 0.00 0.00 0.00 91 1011.6
20260510073039 15 0 0.0 6.4 0.00 0.00 0.00 91 1011.4
20260510071536 15 311 4.8 8.0 0.00 0.00 0.00 89 1011.5
20260510070034 15 296 3.2 6.4 0.00 0.00 0.00 91 1011.5
20260510064543 15 313 3.2 6.4 0.00 0.00 0.00 90 1011.7
20260510063042 15 0 0.0 0.0 0.00 0.00 0.00 89 1011.7
20260510061534 16 0 0.0 0.0 0.00 0.00 0.00 89 1011.7
20260510060040 16 0 0.0 0.0 0.00 0.00 0.00 88 1011.9
20260510054534 16 0 0.0 0.0 0.00 0.00 0.00 87 1012.0
20260510053039 16 0 0.0 0.0 0.00 0.00 0.00 86 1012.0
20260510051536 16 300 3.2 4.8 0.00 0.00 0.00 86 1012.2
20260510050040 17 272 1.6 6.4 0.00 0.00 0.00 86 1012.2
20260510044538 17 267 0.0 4.8 0.00 0.00 0.00 85 1012.2
20260510043035 17 0 0.0 0.0 0.00 0.00 0.00 85 1012.2
20260510041546 17 0 0.0 3.2 0.00 0.00 0.00 85 1012.2
20260510040038 17 226 0.0 3.2 0.00 0.00 0.00 85 1012.1
20260510034537 17 0 0.0 0.0 0.00 0.00 0.00 84 1012.1
20260510033048 17 0 0.0 8.0 0.00 0.00 0.00 83 1012.0
20260510031538 18 0 0.0 0.0 0.00 0.00 0.00 82 1011.9
20260510030034 18 0 0.0 0.0 0.00 0.00 0.00 82 1011.8
20260510024537 18 0 0.0 8.0 0.00 0.00 0.00 81 1011.6
20260510023037 18 166 4.8 9.7 0.00 0.00 0.00 80 1011.5
20260510021540 18 157 1.6 9.7 0.00 0.00 0.00 79 1011.4
20260510020038 19 146 3.2 9.7 0.00 0.00 0.00 78 1011.3
20260510014536 19 144 3.2 12.9 0.00 0.00 0.00 77 1010.9
20260510013040 19 176 3.2 14.5 0.00 0.00 0.00 76 1010.8
20260510011538 20 163 4.8 11.3 0.00 0.00 0.00 75 1010.4
20260510010037 20 148 4.8 12.9 0.00 0.00 0.00 73 1010.2
20260510004534 20 129 3.2 12.9 0.00 0.00 0.00 72 1009.9
20260510003052 20 125 4.8 12.9 0.00 0.00 0.00 70 1009.8
20260510001543 21 140 3.2 11.3 0.00 0.00 0.00 68 1009.9
20260510000043 21 167 4.8 8.0 0.00 0.00 0.00 66 1009.8
20260509234539 22 170 4.8 9.7 0.00 0.00 0.00 64 1009.5
20260509233032 22 134 4.8 11.3 0.00 0.00 0.00 63 1009.4
20260509231531 22 141 9.7 12.9 0.00 0.00 0.00 61 1009.1
20260509230038 23 121 9.7 19.3 0.00 0.00 0.00 60 1009.0
20260509224537 23 136 9.7 17.7 0.00 0.00 0.00 60 1008.9
20260509223035 22 178 6.4 17.7 0.00 0.00 0.00 61 1008.9
20260509221535 22 136 6.4 12.9 0.00 0.00 0.00 60 1009.1
20260509220047 22 198 8.0 14.5 0.00 0.00 0.00 59 1008.9
20260509214541 22 157 8.0 14.5 0.00 0.00 0.00 59 1009.0
20260509213041 23 149 8.0 14.5 0.00 0.00 0.00 56 1008.8
20260509211542 23 180 8.0 20.9 0.00 0.00 0.00 54 1008.5
20260509210037 23 199 8.0 25.7 0.00 0.00 0.00 56 1008.6
20260509204541 23 192 6.4 19.3 0.00 0.00 0.00 57 1008.6
20260509203036 23 185 11.3 25.7 0.00 0.00 0.00 56 1008.5
20260509201538 23 150 6.4 16.1 0.00 0.00 0.00 58 1008.7
20260509200041 23 226 4.8 16.1 0.00 0.00 0.00 58 1008.9
20260509194542 22 170 9.7 16.1 0.00 0.00 0.00 59 1009.1
20260509193042 23 209 6.4 19.3 0.00 0.00 0.00 58 1009.0
20260509191532 23 150 8.0 17.7 0.00 0.00 0.00 58 1009.1
20260509190035 22 138 8.0 17.7 0.00 0.00 0.00 58 1009.3
20260509184539 23 238 11.3 17.7 0.00 0.00 0.00 56 1009.3
20260509183038 22 186 8.0 19.3 0.00 0.00 0.00 58 1009.6
20260509181539 22 217 9.7 19.3 0.00 0.00 0.00 59 1010.1
20260509180034 22 132 9.7 30.6 0.00 0.00 0.00 55 1010.1
20260509174532 22 167 11.3 25.7 0.00 0.00 0.00 57 1010.2
20260509173038 22 221 12.9 19.3 0.00 0.00 0.00 57 1010.2
20260509171541 22 198 11.3 27.4 0.00 0.00 0.00 58 1010.5
20260509170040 22 207 14.5 24.1 0.00 0.00 0.00 56 1010.7
20260509164537 21 184 14.5 25.7 0.00 0.00 0.00 59 1011.0
20260509163037 21 186 11.3 29.0 0.00 0.00 0.00 61 1011.2
20260509161534 21 186 11.3 24.1 0.00 0.00 0.00 63 1011.1
20260509160034 20 192 12.9 29.0 0.00 0.00 0.00 63 1011.1
20260509154541 20 136 12.9 27.4 0.00 0.00 0.00 64 1011.1
20260509153037 20 150 8.0 16.1 0.00 0.00 0.00 65 1011.3
20260509151537 19 227 11.3 22.5 0.00 0.00 0.00 68 1011.5
20260509150037 20 196 1.6 16.1 0.00 0.00 0.00 66 1011.4
20260509144541 18 136 6.4 17.7 0.00 0.00 0.00 68 1011.5
20260509143041 18 121 6.4 20.9 0.00 0.00 0.00 69 1011.8
20260509141538 17 173 9.7 24.1 0.00 0.00 0.00 71 1011.9